Погода в Нарын-Талаче

Россия / Забайкальский край     51°55′45″N   114°51′45″E
темп.,
°C
ветер,
м/с
пор.,
м/с
влажн.,
%
обл.,
%
осадки,
мм/ч
давл.,
гПа
погр.,
м
22 октября, пт
пт2200:00−5сз21933 0.0 102913
03:00−5зсз21945 0.0 102913
06:00−6зсз11955 0.0 102912
09:00−4з11865 0.0 102827
12:00+4юз23555 0.0 1025387
15:00+7юз34461 0.0 1022654
18:00+1юз11700 0.0 102310
21:00−1зюз11770 0.0 102310
23 октября, сб
сб2300:00−2з11790 0.0 102310
03:00−2з11800 0.0 102310
06:00−3з11790 0.0 102310
09:00−1з11710 0.0 102311
12:00+5з24440 0.0 1021502
15:00+7з34415 0.0 1019721
18:00+1зсз22653 0.0 102111
21:00−1сз22750 0.0 102210
24 октября, вс
вс2400:00−2зсз11775 0.0 102210
03:00−3зсз11798 0.0 102110
06:00−3з118189 0.0 102110
09:00−2з11771 0.0 102131
12:00+4з465364 0.0 1018622
15:00+5зсз475196 0.0 1016754
18:00+1зсз247299 0.0 101779
21:00−2зсз22865 0.0 101917
25 октября, пн
пн2500:00−2зсз22885 0.0 101815
03:00−3з229074 0.0 101818
06:00−4зсз22935 0.0 101828
09:00−3з238730 0.0 101879
12:00+3зсз3660100 0.0 1016515
15:00+5зсз5105699 0.0 1014955
18:00+3зсз613625 0.0 1015802
21:000зсз514745 0.0 1017535
26 октября, вт
вт2600:00−1зсз413761 0.0 1018488
03:00−3зсз310845 0.0 1020303
06:00−4зсз23885 0.0 102160
09:00−4зсз238841 0.0 102189
12:00+1з4661100 0.0 1018654
15:00+4з51151100 0.0 10141187
18:00+4з615587 0.0 1010938
21:00+2зсз8156784 0.0 1011989